2018-096U (43737 NORAD) Tracking and Keplerian Element Data

This shows tracking and keplerian element data for the satellite.

Feedback or suggestion? Click here.




ElementValue
Catalog43737
Name2018-096U
Epoch Orbit173
Epoch Day344.497238
Epoch Year2018
RAAN49.5191
Inclination97.4836
Eccentricity0.0021516
Argument of Perigee292.7606
Mean Anonmoly67.1359
Mean Motion15.27176231
Decay Rate2.193E-05
L11 43737U 18096U 18344.49723800 .00002193 00000-0 84681-4 0 9997
L22 43737 97.4836 49.5191 0021516 292.7606 67.1359 15.27176231 1736

Live tracking and technical data element details for 2018-096U (NORAD 43737). 2018-096U can be tracked NOW for your location showing map with azimuth and elevation plus other details from your city location.

Track the satellite on the map from your city or location and see movement details for azimuth, elevation, latitude, longitude, range, height, and movement on the map or in text.







IsCatalogInMostPopularTable: catalog: 43737, numindb: 5
Update: records affected: 1



GetName: 43737 2018-096U

Hit Count: updated at: Tue, 11 Dec 2018 01:53:06 GMT